• In Romania
  • List of Countries
  • For 7 days
  • Water Temperature
  • Satellite Maps
  • Weather Map
  • Weather Widgets
  • user-avatar
    Login

    Hourly Weather Graz

    Today, 23 February, Thursday

    Time Temperature Precipitation Wind Pressure Humidity
    00:00 +5°C° 0 mm 2 mps 720 mmHg 94%
    01:00 +4°C° 0 mm 2 mps 719 mmHg 96%
    02:00 +4°C° 0 mm 2 mps 719 mmHg 95%
    03:00 +4°C° 0 mm 2 mps 719 mmHg 94%
    04:00 +4°C° 0 mm 2 mps 719 mmHg 93%
    05:00 +4°C° 0 mm 2 mps 720 mmHg 93%
    06:00 +4°C° 0 mm 2 mps 720 mmHg 93%
    07:00 +4°C° 0 mm 2 mps 720 mmHg 93%
    08:00 +5°C° 0 mm 2 mps 720 mmHg 89%
    09:00 +6°C° 0 mm 2 mps 720 mmHg 86%
    10:00 +8°C° 0 mm 2 mps 720 mmHg 83%
    11:00 +9°C° 0 mm 2 mps 720 mmHg 80%
    12:00 +10°C° 0 mm 2 mps 719 mmHg 78%
    13:00 +12°C° 0 mm 2 mps 719 mmHg 76%
    14:00 +12°C° 0 mm 2 mps 718 mmHg 78%
    15:00 +10°C° 0 mm 2 mps 718 mmHg 80%
    16:00 +10°C° 0 mm 3 mps 717 mmHg 82%
    17:00 +9°C° 0 mm 3 mps 716 mmHg 85%
    18:00 +7°C° 0 mm 3 mps 716 mmHg 89%
    19:00 +5°C° 0 mm 3 mps 715 mmHg 92%
    20:00 +5°C° 0 mm 3 mps 715 mmHg 92%
    21:00 +4°C° 0 mm 3 mps 715 mmHg 93%
    22:00 +4°C° 0 mm 3 mps 715 mmHg 93%
    23:00 +4°C° 0 mm 3 mps 715 mmHg 93%

    Tomorrow, 24 February, Friday

    Time Temperature Precipitation Wind Pressure Humidity
    00:00 +4°C° 0 mm 2 mps 715 mmHg 93%
    01:00 +4°C° 0 mm 2 mps 714 mmHg 94%
    02:00 +4°C° 0 mm 2 mps 714 mmHg 94%
    03:00 +4°C° 0 mm 2 mps 714 mmHg 94%
    04:00 +4°C° 0 mm 2 mps 714 mmHg 94%
    05:00 +4°C° 0 mm 2 mps 714 mmHg 94%
    06:00 +4°C° 0 mm 2 mps 715 mmHg 94%
    07:00 +4°C° 0 mm 2 mps 715 mmHg 94%
    08:00 +5°C° 0.1 mm 2 mps 715 mmHg 91%
    09:00 +5°C° 0.1 mm 2 mps 716 mmHg 89%
    10:00 +6°C° 0.1 mm 2 mps 716 mmHg 86%
    11:00 +6°C° 0.7 mm 2 mps 716 mmHg 86%
    12:00 +6°C° 0.7 mm 2 mps 717 mmHg 87%
    13:00 +6°C° 0.7 mm 2 mps 717 mmHg 88%
    14:00 +5°C° 0.7 mm 2 mps 717 mmHg 89%
    15:00 +6°C° 0.7 mm 1 mps 717 mmHg 90%
    16:00 +5°C° 0.7 mm 1 mps 718 mmHg 92%
    17:00 +5°C° 0.8 mm 1 mps 719 mmHg 93%
    18:00 +4°C° 0.8 mm 1 mps 719 mmHg 95%
    19:00 +4°C° 0.8 mm 1 mps 720 mmHg 97%
    20:00 +3°C° 0.6 mm 1 mps 721 mmHg 96%
    21:00 +3°C° 0.6 mm 1 mps 722 mmHg 96%
    22:00 +3°C° 0.6 mm 1 mps 723 mmHg 96%
    23:00 +2°C° 0.1 mm 1 mps 723 mmHg 95%

    Day after tomorrow, 25 February, Saturday

    Time Temperature Precipitation Wind Pressure Humidity
    00:00 +2°C° 0.1 mm 1 mps 723 mmHg 94%
    01:00 +2°C° 0.1 mm 1 mps 724 mmHg 93%
    02:00 +1°C° 0 mm 1 mps 724 mmHg 93%
    03:00 +1°C° 0 mm 1 mps 725 mmHg 93%
    04:00 +1°C° 0 mm 1 mps 725 mmHg 93%
    05:00 0°C° 0 mm 1 mps 726 mmHg 92%
    06:00 0°C° 0 mm 1 mps 726 mmHg 92%
    07:00 -3°C° 0 mm 2 mps 727 mmHg 91%
    08:00 -1°C° 0 mm 2 mps 727 mmHg 86%
    09:00 +1°C° 0 mm 2 mps 728 mmHg 80%
    10:00 +2°C° 0 mm 2 mps 728 mmHg 74%
    11:00 +3°C° 0 mm 2 mps 728 mmHg 73%
    12:00 +4°C° 0 mm 2 mps 728 mmHg 71%
    13:00 +4°C° 0 mm 2 mps 729 mmHg 70%
    14:00 +5°C° 0 mm 1 mps 728 mmHg 71%
    15:00 +5°C° 0 mm 1 mps 728 mmHg 72%
    16:00 +5°C° 0 mm 1 mps 728 mmHg 73%
    17:00 +3°C° 0 mm 1 mps 728 mmHg 77%
    18:00 +1°C° 0 mm 1 mps 729 mmHg 82%
    19:00 -2°C° 0 mm 1 mps 729 mmHg 86%
    20:00 -2°C° 0 mm 1 mps 729 mmHg 86%
    21:00 -1°C° 0 mm 1 mps 729 mmHg 87%
    22:00 -1°C° 0 mm 1 mps 729 mmHg 87%
    23:00 -1°C° 0 mm 1 mps 729 mmHg 86%

    26 February, Sunday

    Time Temperature Precipitation Wind Pressure Humidity
    00:00 -2°C° 0 mm 1 mps 729 mmHg 86%
    01:00 -2°C° 0 mm 1 mps 729 mmHg 86%
    02:00 -1°C° 0 mm 1 mps 728 mmHg 85%
    03:00 -1°C° 0 mm 1 mps 728 mmHg 84%
    04:00 -1°C° 0 mm 1 mps 727 mmHg 83%
    05:00 -1°C° 0 mm 1 mps 727 mmHg 83%
    06:00 -1°C° 0 mm 1 mps 727 mmHg 82%
    07:00 -1°C° 0 mm 1 mps 726 mmHg 81%
    08:00 +1°C° 0 mm 1 mps 726 mmHg 77%
    09:00 +3°C° 0 mm 1 mps 726 mmHg 73%
    10:00 +5°C° 0 mm 1 mps 727 mmHg 69%
    11:00 +7°C° 0 mm 1 mps 726 mmHg 68%
    12:00 +8°C° 0 mm 1 mps 726 mmHg 66%
    13:00 +9°C° 0 mm 1 mps 725 mmHg 65%
    14:00 +8°C° 0 mm 1 mps 725 mmHg 69%
    15:00 +8°C° 0 mm 1 mps 725 mmHg 74%
    16:00 +8°C° 0 mm 1 mps 725 mmHg 78%
    17:00 +6°C° 0 mm 1 mps 724 mmHg 81%
    18:00 +4°C° 0 mm 1 mps 724 mmHg 84%
    19:00 +2°C° 0 mm 1 mps 724 mmHg 87%
    20:00 +2°C° 0 mm 1 mps 724 mmHg 87%
    21:00 +2°C° 0 mm 1 mps 724 mmHg 86%
    22:00 +2°C° 0 mm 1 mps 724 mmHg 85%
    23:00 +1°C° 0 mm 0 mps 724 mmHg 85%

    27 February, Monday

    Time Temperature Precipitation Wind Pressure Humidity
    00:00 +1°C° 0 mm 0 mps 724 mmHg 85%
    01:00 0°C° 0 mm 0 mps 723 mmHg 85%
    02:00 0°C° 0 mm 0 mps 723 mmHg 85%
    03:00 0°C° 0 mm 0 mps 723 mmHg 85%
    04:00 0°C° 0 mm 0 mps 723 mmHg 85%
    05:00 0°C° 0 mm 0 mps 723 mmHg 84%
    06:00 0°C° 0 mm 0 mps 723 mmHg 84%
    07:00 +2°C° 0 mm 1 mps 723 mmHg 84%
    08:00 +4°C° 0 mm 1 mps 723 mmHg 78%
    09:00 +6°C° 0 mm 1 mps 723 mmHg 72%
    10:00 +9°C° 0 mm 1 mps 723 mmHg 66%
    11:00 +9°C° 0 mm 1 mps 722 mmHg 65%
    12:00 +9°C° 0 mm 2 mps 722 mmHg 64%
    13:00 +10°C° 0 mm 2 mps 721 mmHg 63%
    14:00 +9°C° 0 mm 2 mps 721 mmHg 68%
    15:00 +8°C° 0 mm 2 mps 720 mmHg 73%
    16:00 +8°C° 0 mm 2 mps 719 mmHg 78%
    17:00 +6°C° 0 mm 2 mps 719 mmHg 83%
    18:00 +4°C° 0 mm 2 mps 719 mmHg 88%
    19:00 +3°C° 0 mm 1 mps 719 mmHg 93%
    20:00 +3°C° 0 mm 1 mps 719 mmHg 94%
    21:00 +3°C° 0 mm 1 mps 719 mmHg 94%
    22:00 +3°C° 0 mm 1 mps 718 mmHg 94%
    23:00 +3°C° 0 mm 1 mps 718 mmHg 94%

    28 February, Tuesday

    Time Temperature Precipitation Wind Pressure Humidity
    00:00 +2°C° 0 mm 2 mps 718 mmHg 94%
    01:00 +2°C° 0 mm 2 mps 717 mmHg 94%
    02:00 +2°C° 0 mm 2 mps 717 mmHg 94%
    03:00 +1°C° 0 mm 2 mps 717 mmHg 94%
    04:00 +1°C° 0 mm 2 mps 716 mmHg 94%
    05:00 +1°C° 0 mm 2 mps 716 mmHg 94%
    06:00 +1°C° 0 mm 2 mps 716 mmHg 94%
    07:00 +1°C° 0 mm 2 mps 716 mmHg 95%
    08:00 +3°C° 0 mm 2 mps 716 mmHg 89%
    09:00 +5°C° 0 mm 2 mps 716 mmHg 84%
    10:00 +8°C° 0 mm 3 mps 716 mmHg 78%
    11:00 +9°C° 0 mm 3 mps 716 mmHg 77%
    12:00 +10°C° 0 mm 4 mps 715 mmHg 76%
    13:00 +10°C° 0 mm 4 mps 715 mmHg 75%
    14:00 +10°C° 0.1 mm 4 mps 714 mmHg 78%
    15:00 +8°C° 0.1 mm 4 mps 714 mmHg 81%
    16:00 +8°C° 0.1 mm 4 mps 713 mmHg 84%
    17:00 +7°C° 0.1 mm 4 mps 713 mmHg 87%
    18:00 +7°C° 0.1 mm 3 mps 713 mmHg 90%
    19:00 +5°C° 0.1 mm 3 mps 714 mmHg 94%
    20:00 +5°C° 1 mm 3 mps 714 mmHg 94%
    21:00 +5°C° 1 mm 3 mps 714 mmHg 94%
    22:00 +5°C° 1 mm 3 mps 714 mmHg 95%
    23:00 +5°C° 2.5 mm 2 mps 714 mmHg 95%
    Show more